Flight Track Log - Related Links

Times and Time Zones

All times are in EDT time to prevent confusion due to time zone crossing. See the RPA3247 flight status page for this flight to view local times or setup timezone preferences in your user account.


Time Position Orientation Groundspeed Altitude Reporting Facility
EDT Latitude Longitude Course Direction KTS MPH feet Rate Location/Type
Tue 05:48:50 PM 42.7297 -73.8081 198° South 150 173 1,400  Level Boston Center
Tue 05:49:51 PM 42.6922 -73.8242 198° South 196 226 3,000 2,110 Climbing Boston Center
Tue 05:51:15 PM 42.7450 -73.9186 307° West 271 312 6,500 2,958 Climbing Boston Center
Tue 05:52:15 PM 42.8025 -73.9994 314° West 283 326 10,100 3,250 Climbing Boston Center
Tue 05:53:15 PM 42.8639 -74.0803 316° Northwest 294 338 13,000 2,700 Climbing Boston Center
Tue 05:54:15 PM 42.9183 -74.1950 303° West 315 362 15,500 2,364 Climbing Boston Center
Tue 05:55:27 PM 42.8586 -74.2756 225° Southwest 274 315 18,200 2,545 Climbing Boston Center
Tue 05:56:27 PM 42.7503 -74.2781 181° South 282 325 21,100 2,500 Climbing Boston Center
Tue 05:57:27 PM 42.6639 -74.2133 151° Southeast 301 346 23,200 1,900 Climbing Boston Center
Tue 05:58:27 PM 42.5644 -74.1569 157° South 330 380 24,900 1,900 Climbing Boston Center
Tue 05:59:27 PM 42.4761 -74.0869 150° Southeast 360 414 27,000 1,550 Climbing Boston Center
Tue 06:00:27 PM 42.3789 -74.0197 153° Southeast 387 445 28,000 500 Climbing Boston Center
Tue 06:01:27 PM 42.2819 -73.9556 154° Southeast 387 445 28,000  Level Boston Center
Tue 06:02:27 PM 42.1725 -73.8772 152° Southeast 393 452 28,000  Level Boston Center
Tue 06:03:27 PM 42.0894 -73.8583 170° South 393 452 28,000  Level Boston Center
Tue 06:05:55 PM 41.8306 -73.9614 197° South 368 423 28,000  Level New York Center
Tue 06:06:55 PM 41.7336 -74.0039 198° South 368 423 28,000  Level New York Center
Tue 06:07:53 PM 41.6347 -74.0433 197° South 368 423 28,000  Level New York Center
Tue 06:08:53 PM 41.5525 -74.0808 199° South 368 423 28,000  Level New York Center
Tue 06:09:55 PM 41.4556 -74.1231 198° South 366 421 28,000  Level New York Center
Tue 06:10:53 PM 41.3586 -74.1625 197° South 366 421 28,000 -51 Level New York Center
Tue 06:11:53 PM 41.2617 -74.2047 198° South 366 421 27,900 -496 Descending New York Center
Tue 06:12:54 PM 41.1500 -74.2458 195° South 371 427 27,000 -850 Descending New York Center
Tue 06:13:53 PM 41.0508 -74.2875 198° South 371 427 26,200 -500 Descending New York Center
Tue 06:14:54 PM 40.9539 -74.3317 199° South 371 427 26,000 -98 Descending New York Center
Tue 06:15:55 PM 40.8506 -74.3731 197° South 371 427 26,000  Level New York Center
Tue 06:16:53 PM 40.7631 -74.4397 210° Southwest 371 427 26,000  Level New York Center
Tue 06:17:53 PM 40.6969 -74.5511 232° Southwest 371 427 26,000  Level New York Center
Tue 06:18:53 PM 40.6431 -74.6711 239° Southwest 376 433 26,000 -99 Level New York Center
Tue 06:19:54 PM 40.5931 -74.7939 242° Southwest 382 440 25,800 -443 Descending New York Center
Tue 06:20:55 PM 40.5389 -74.9164 240° Southwest 387 445 25,100 -744 Descending New York Center
Tue 06:21:55 PM 40.4886 -75.0417 242° Southwest 387 445 24,300 -559 Descending New York Center
Tue 06:22:53 PM 40.4358 -75.1667 241° Southwest 387 445 24,000 -151 Descending New York Center
Tue 06:23:54 PM 40.3694 -75.2742 231° Southwest 387 445 24,000  Level New York Center
Tue 06:24:55 PM 40.2889 -75.3614 220° Southwest 387 445 24,000 -397 Level New York Center
Tue 06:25:55 PM 40.2031 -75.4236 209° Southwest 390 449 23,200 -763 Descending New York Center
Tue 06:26:53 PM 40.1169 -75.4939 212° Southwest 390 449 22,500 -756 Descending New York Center
Tue 06:27:54 PM 40.0347 -75.5669 214° Southwest 375 432 21,700 -793 Descending New York Center
Tue 06:28:54 PM 39.9525 -75.6425 215° Southwest 370 426 20,900 -744 Descending New York Center
Tue 06:29:55 PM 39.8858 -75.7381 228° Southwest 359 413 20,200 -454 Descending New York Center
Tue 06:30:53 PM 39.8292 -75.8447 235° Southwest 359 413 20,000 -102 Descending New York Center
Tue 06:31:53 PM 39.7722 -75.9567 237° Southwest 366 421 20,000  Level New York Center
Tue 06:32:55 PM 39.7175 -76.0633 236° Southwest 371 427 20,000 -1,585 Level New York Center
Tue 06:35:25 PM 39.6667 -76.4000 259° West 360 414 14,400 -2,257 Descending Potomac TRACON
Tue 06:36:25 PM 39.6167 -76.4833 232° Southwest 325 374 12,100 -1,190 Descending Potomac TRACON
Tue 06:37:26 PM 39.5333 -76.5167 197° South 318 366 12,000 -50 Descending Potomac TRACON
Tue 06:38:25 PM 39.4500 -76.5500 197° South 315 362 12,000 -101 Level Potomac TRACON
Tue 06:39:25 PM 39.3667 -76.5833 197° South 307 353 11,800 -850 Descending Potomac TRACON
Tue 06:40:25 PM 39.3000 -76.6167 201° Southwest 276 318 10,300 -939 Descending Potomac TRACON
Tue 06:41:20 PM 39.2333 -76.6333 191° South 272 313 10,000 -157 Descending Potomac TRACON
Tue 06:42:20 PM 39.1500 -76.6833 205° Southwest 284 327 10,000  Level Potomac TRACON
Tue 06:43:26 PM 39.1000 -76.7500 226° Southwest 260 299 10,000 -476 Level Potomac TRACON
Tue 06:44:26 PM 39.0500 -76.8167 226° Southwest 249 287 9,000 -1,200 Descending Potomac TRACON
Tue 06:45:26 PM 39.0000 -76.8667 218° Southwest 249 287 7,600 -1,300 Descending Potomac TRACON
Tue 06:46:26 PM 38.9500 -76.9333 226° Southwest 238 274 6,400 -800 Descending Potomac TRACON
Tue 06:47:26 PM 38.8833 -76.9500 191° South 176 203 6,000 -200 Descending Potomac TRACON
Tue 06:48:26 PM 38.8500 -76.9500 180° South 174 200 6,000 -50 Level Potomac TRACON
Tue 06:49:26 PM 38.8000 -76.9500 180° South 175 201 5,900 -600 Descending Potomac TRACON
Tue 06:50:26 PM 38.7500 -76.9500 180° South 164 189 4,800 -950 Descending Potomac TRACON
Tue 06:51:26 PM 38.7000 -76.9333 165° South 159 183 4,000 -789 Descending Potomac TRACON
Tue 06:52:20 PM 38.6667 -76.9333 180° South 155 178 3,300 -947 Descending Potomac TRACON
Tue 06:53:20 PM 38.6333 -76.9500 201° Southwest 192 221 2,200 -650 Descending Potomac TRACON
Tue 06:54:20 PM 38.6333 -77.0167 270° West 216 249 2,000 -100 Descending Potomac TRACON
Tue 06:55:20 PM 38.6833 -77.0167 360° North 179 206 2,000  Level Potomac TRACON
Tue 06:56:21 PM 38.7333 -77.0333 345° North 184 212 2,000 -429 Level Potomac TRACON
Tue 06:57:26 PM 38.7833 -77.0333 360° North 162 186 1,100 -768 Descending Potomac TRACON
Tue 06:58:26 PM 38.8333 -77.0333 360° North 128 147 400 -700 Descending Potomac TRACON
Tue 07:00:00 PM 38.8500 -77.0333 343° North  Level FlightAware Approximate

Login

Don't have an account? Register now (free) for customized features, flight alerts, and more!